User: anonymous   Login
Location: La Vergne
(36.0160°N, 86.5820°W)
Time: 03:48:31
(UTC-06:00)
Language:

Cosmos 2341 Rocket - Orbit

View from above orbital plane
View from above orbital plane
View from above satellite
View from above satellite

Ground track
Ground track

The orbit data is extracted from the following two-line orbital elements,

1 24773U 97017B   18022.91233611 +.00000124 +00000-0 +11674-3 0  9995
2 24773 082.9195 210.7472 0025305 053.5606 058.2253 13.73605565040787
Epoch (UTC): 22 January 2018 21:53:45
Eccentricity: 0.0025305
inclination: 82.9195°
perigee height: 968 km
apogee height: 1005 km
right ascension of ascending node: 210.7472°
argument of perigee: 53.5606°
revolutions per day: 13.73605565
mean anomaly at epoch: 58.2253°
orbit number at epoch: 4078

The dashed part of the orbit path shows where the satellite is in the earth's shadow,  

DLR